Wind_Speed
33 31 31 31 30 30 28 29 26 27 28 32 32 27 24 22 22 20 21 22 22 24 28 30 33 36 37 39 43 46 50 54 55 54 59 48 49 48 48 50 50 55 60
34 32 32 31 31 28 28 26 23 25 24 25 24 19 18 18 17 19 20 22 23 28 31 32 35 36 38 41 44 47 49 55 59 56 60 56 47 48 47 43 46 45 47
34 33 33 31 30 29 28 25 23 22 21 19 14 13 15 16 13 15 21 21 23 26 32 34 34 37 40 44 46 48 49 53 56 58 59 63 57 44 34 31 36 38 39
34 34 33 31 30 28 27 25 24 22 19 15 14 15 12 17 16 17 21 24 24 26 28 30 33 36 39 42 47 51 53 52 58 57 59 64 60 42 26 20 22 28 29
35 35 34 32 32 28 28 26 25 23 20 17 16 16 15 15 17 18 20 21 23 27 31 33 34 36 38 41 44 50 53 54 55 59 59 61 63 48 30 19 14 17 21
37 35 34 33 32 29 30 28 27 25 23 20 18 17 19 17 19 22 25 24 25 27 29 31 32 34 37 40 43 45 50 54 56 58 60 57 59 55 32 22 15 10 7
37 35 34 35 34 31 31 32 30 29 26 25 23 22 22 21 23 25 26 26 26 27 28 30 31 34 37 39 42 44 45 48 53 56 57 56 54 53 43 24 16 14 10
37 36 35 36 35 33 33 34 33 32 31 28 27 28 26 26 28 27 28 28 28 28 27 29 31 34 36 39 40 42 44 44 45 50 53 53 51 46 46 35 23 15 11
38 38 37 38 36 35 35 36 36 35 34 33 33 33 33 33 32 31 31 31 30 31 31 31 31 33 35 38 41 41 41 43 42 42 44 49 48 45 38 38 31 20 15
39 41 41 38 36 37 38 37 39 37 36 36 37 38 39 39 37 36 36 35 36 36 35 37 38 39 39 40 42 42 41 41 41 41 40 39 42 40 41 32 30 29 21
43 43 40 37 39 40 39 38 41 40 39 39 38 40 43 43 42 41 41 40 41 41 41 41 42 44 46 46 44 43 43 42 41 40 37 36 34 35 33 34 30 23 22
43 42 39 38 41 41 39 38 40 41 41 40 41 41 43 45 46 45 45 45 45 45 46 45 44 45 50 51 48 47 46 44 41 40 39 34 31 29 29 28 29 28 20
42 42 39 40 42 42 40 41 40 41 42 41 41 41 43 44 45 47 48 48 49 49 49 49 49 49 47 51 52 51 47 43 38 37 38 36 29 27 25 24 23 23 23
43 42 43 44 43 43 42 42 41 40 41 42 41 41 44 43 46 47 48 49 51 52 52 53 54 52 53 49 50 47 45 41 41 40 37 33 31 27 24 22 20 18 17
47 47 46 47 47 45 43 41 39 41 42 43 42 41 40 41 43 44 45 46 48 50 51 53 52 53 52 50 47 49 47 47 44 41 39 32 31 29 28 26 22 17 17
46 45 46 49 48 47 43 42 41 43 44 44 42 42 43 45 46 46 47 49 49 49 49 46 45 45 47 49 49 46 46 46 45 43 39 37 41 39 31 30 27 25 21
39 42 43 45 47 46 45 44 42 43 43 43 42 42 43 45 44 43 43 42 44 46 45 44 46 47 47 48 47 48 49 50 50 47 42 37 36 35 35 34 35 32 30
39 39 41 43 46 48 46 44 42 41 43 41 42 42 41 42 43 44 45 46 49 50 51 51 50 50 51 51 51 49 48 47 47 45 43 41 40 39 38 38 38 40 39
36 38 40 42 45 46 45 43 43 42 41 41 42 44 45 47 48 50 50 51 52 52 53 52 53 53 53 53 53 53 52 51 50 49 48 47 45 44 43 42 38 40 41
36 38 40 40 39 40 43 45 43 41 43 45 47 48 48 49 50 52 52 53 52 54 55 53 54 55 55 55 55 55 56 55 54 52 50 48 47 47 45 43 42 38 39
40 41 43 44 42 43 46 45 40 40 44 48 49 50 50 51 52 54 54 54 54 55 54 55 55 56 57 57 57 56 56 55 52 49 47 44 43 43 42 42 42 42 43
40 40 41 42 44 43 39 39 43 46 50 51 51 51 52 53 54 55 56 56 57 55 55 56 57 58 58 59 57 55 54 53 51 50 47 47 45 45 45 43 42 43 42
35 36 36 36 38 41 45 48 49 50 52 52 52 53 54 55 56 56 57 57 56 56 57 58 58 57 57 57 57 56 55 53 51 51 49 49 50 49 48 48 48 47 47
37 39 42 44 46 47 48 49 50 52 53 54 54 55 56 57 57 57 56 57 57 57 58 59 59 60 60 59 58 56 55 54 53 52 51 50 50 49 49 48 49 50 50
43 45 46 48 49 49 50 51 52 53 53 54 55 55 55 55 55 56 56 57 58 59 59 60 61 61 61 60 58 57 56 56 56 57 57 57 56 56 55 56 56 56 56
47 47 48 49 50 51 52 53 54 54 54 54 53 54 54 55 56 56 56 57 58 60 61 62 62 61 61 61 61 62 63 63 63 63 64 64 63 63 62 62 62 62 62
Wind_Direction
254 256 259 262 267 271 271 275 282 291 301 314 318 327 326 336 336 347 360 11 14 10 7 6 7 4 1 1 2 1 357 355 346 340 344 324 308 299 287 273 265 258 250
252 254 257 259 265 264 265 273 277 288 300 312 323 345 350 2 17 17 11 3 356 355 355 356 355 353 355 355 354 356 358 356 354 348 347 342 321 306 293 278 261 257 252
250 253 255 259 260 257 261 268 270 281 294 308 319 327 348 348 350 354 351 349 352 349 348 350 355 356 356 356 356 355 357 358 356 352 350 352 340 329 306 283 261 254 249
250 253 255 255 253 251 258 261 263 273 279 296 303 311 323 329 326 330 340 344 340 340 343 347 352 354 356 357 357 359 358 358 357 356 354 357 356 346 338 319 280 260 253
250 254 254 252 249 248 255 256 258 267 269 280 291 296 302 312 318 325 325 326 329 337 342 344 347 350 353 356 357 359 2 2 1 358 357 360 6 2 4 357 321 276 267
251 253 253 249 247 248 253 255 253 259 262 267 278 278 292 296 300 306 313 317 325 336 341 343 345 346 349 352 354 357 2 5 4 2 1 0 8 13 14 16 11 1 328
251 250 249 249 248 246 250 253 252 254 260 261 266 271 281 285 286 292 303 312 318 323 330 335 339 342 344 346 348 352 356 360 4 4 3 4 6 14 13 17 27 21 9
251 251 249 247 247 245 247 252 252 254 255 257 263 267 272 275 280 290 299 304 311 314 320 326 331 335 338 340 342 344 349 356 359 5 4 5 7 10 18 14 7 14 19
251 250 248 247 247 246 247 250 253 255 256 257 261 267 271 274 280 288 293 298 303 308 313 317 322 327 329 332 335 338 342 346 351 356 4 4 4 9 13 17 16 360 356
249 248 247 247 249 248 248 250 253 256 258 259 260 266 272 276 280 285 290 294 299 304 308 313 317 320 322 325 329 331 334 337 340 345 353 0 5 4 10 9 14 16 3
247 248 246 248 248 249 251 252 253 257 260 261 264 266 269 275 280 283 288 292 295 298 302 306 313 315 317 319 321 324 326 329 330 334 340 346 356 3 2 6 9 6 10
244 246 248 248 250 251 252 254 255 256 261 263 265 268 271 273 276 281 284 286 289 293 296 299 302 306 311 312 313 316 320 322 323 323 326 331 337 346 359 359 356 5 4
246 248 248 249 251 251 253 256 256 257 261 264 266 269 272 273 275 278 281 284 288 290 292 295 297 299 301 307 310 312 315 317 321 324 322 320 319 326 335 351 355 347 352
245 247 247 249 250 252 255 256 256 258 261 265 268 270 272 275 278 281 283 285 288 291 294 295 297 298 300 298 305 311 313 313 314 318 316 318 314 307 310 318 330 343 336
245 248 251 255 253 249 253 256 259 262 262 263 266 269 273 275 278 281 284 286 289 292 294 298 296 296 297 299 300 304 309 311 313 315 315 307 311 308 293 295 297 303 317
248 252 255 257 256 252 251 255 258 262 263 264 266 269 271 273 276 281 284 286 289 291 292 292 298 301 301 300 301 303 305 307 309 309 306 299 301 300 296 279 277 279 275
253 255 256 257 257 255 252 253 255 257 260 263 266 268 272 275 279 282 282 286 289 291 293 293 294 295 298 299 300 300 302 301 300 300 302 301 297 297 294 283 269 268 270
251 255 258 259 259 255 253 252 254 258 261 264 267 268 271 274 276 279 284 288 289 291 292 293 295 296 296 298 299 299 299 298 298 297 297 295 297 298 296 288 280 268 263
254 257 259 261 260 256 248 248 252 256 260 262 264 266 269 273 277 281 284 286 288 289 289 291 293 294 295 295 296 295 294 294 294 295 296 297 297 296 296 294 292 283 276
253 255 255 255 252 252 255 257 256 258 263 266 268 270 273 278 282 284 286 287 288 288 289 291 291 292 292 293 294 293 293 295 297 297 296 294 292 290 288 286 285 280 280
253 253 254 252 250 251 253 253 256 262 269 271 273 276 280 283 284 286 286 287 287 287 288 288 288 289 290 290 291 293 294 294 294 292 291 288 288 290 290 290 288 289 280
251 251 253 255 256 256 257 262 266 269 272 275 278 280 282 283 284 285 286 286 285 285 285 285 285 286 287 288 290 291 290 290 289 288 287 289 287 286 288 286 285 283 280
254 255 257 259 263 267 269 270 271 273 275 277 279 281 282 282 283 283 284 284 284 283 283 284 286 286 287 288 288 289 289 289 288 287 286 284 286 286 284 281 282 282 281
259 260 262 264 267 269 271 273 275 277 278 279 280 281 282 282 283 283 282 282 282 283 284 285 286 286 286 286 286 287 286 286 286 285 283 283 283 282 281 280 280 280 280
266 267 268 269 271 273 275 276 277 278 280 282 282 282 281 280 279 281 282 283 283 283 283 284 284 284 285 285 285 284 284 284 282 282 281 281 281 280 280 280 279 278 277
266 268 270 272 274 275 278 280 282 283 283 283 282 282 282 282 282 281 282 282 283 283 284 284 284 284 284 284 284 283 282 281 281 281 281 281 281 280 280 280 279 279 278
Height
5653 5654 5656 5658 5659 5661 5661 5661 5661 5660 5657 5653 5649 5643 5638 5633 5629 5625 5621 5617 5613 5609 5604 5598 5591 5584 5577 5569 5561 5551 5540 5528 5515 5501 5484 5471 5460 5450 5443 5440 5441 5447 5456
5644 5646 5648 5649 5651 5653 5653 5654 5654 5653 5651 5647 5643 5639 5635 5631 5627 5623 5620 5616 5611 5606 5601 5594 5588 5581 5573 5566 5557 5546 5535 5522 5508 5494 5477 5461 5446 5435 5427 5422 5424 5430 5438
5635 5638 5640 5640 5642 5644 5645 5646 5646 5646 5645 5642 5639 5635 5632 5628 5624 5621 5617 5613 5608 5603 5597 5591 5585 5577 5570 5562 5553 5542 5531 5518 5503 5488 5472 5454 5435 5418 5409 5407 5410 5417 5426
5626 5629 5631 5632 5634 5636 5636 5638 5639 5639 5638 5635 5633 5630 5627 5624 5621 5617 5614 5609 5604 5599 5593 5587 5580 5574 5567 5558 5549 5539 5527 5515 5501 5485 5468 5451 5431 5414 5405 5403 5405 5411 5418
5616 5619 5621 5623 5625 5627 5627 5629 5631 5630 5629 5628 5627 5624 5621 5619 5616 5612 5608 5604 5600 5595 5589 5583 5577 5570 5563 5556 5547 5537 5525 5513 5500 5485 5469 5453 5435 5418 5409 5406 5407 5410 5415
5607 5609 5612 5613 5615 5617 5618 5620 5622 5622 5621 5621 5619 5618 5615 5612 5610 5607 5603 5599 5594 5589 5584 5579 5573 5567 5559 5551 5544 5535 5525 5514 5501 5488 5473 5457 5442 5427 5418 5414 5414 5414 5416
5597 5599 5602 5604 5606 5608 5609 5611 5612 5613 5613 5613 5612 5611 5609 5606 5603 5600 5597 5593 5588 5584 5579 5574 5568 5562 5555 5548 5541 5533 5523 5513 5503 5491 5478 5464 5451 5438 5429 5424 5421 5420 5420
5587 5589 5592 5594 5595 5598 5600 5601 5603 5604 5604 5604 5603 5602 5600 5598 5595 5593 5590 5587 5582 5578 5573 5569 5564 5558 5552 5545 5539 5531 5522 5513 5504 5495 5485 5472 5460 5450 5441 5434 5430 5427 5425
5576 5579 5582 5583 5585 5588 5590 5591 5592 5593 5594 5594 5594 5593 5591 5589 5587 5585 5583 5579 5575 5571 5567 5563 5558 5553 5548 5542 5535 5528 5521 5513 5505 5497 5489 5479 5468 5458 5450 5444 5438 5435 5432
5566 5567 5570 5573 5577 5578 5578 5581 5582 5583 5584 5584 5583 5583 5582 5580 5579 5577 5575 5572 5568 5564 5560 5556 5552 5548 5542 5537 5531 5525 5519 5512 5505 5498 5492 5484 5475 5466 5458 5451 5447 5441 5438
5554 5557 5560 5564 5565 5566 5569 5570 5571 5573 5573 5573 5573 5572 5571 5570 5569 5568 5565 5562 5559 5556 5551 5548 5544 5540 5536 5531 5525 5520 5515 5509 5503 5497 5491 5485 5479 5472 5465 5458 5451 5447 5444
5543 5547 5552 5553 5554 5557 5559 5560 5561 5562 5563 5562 5562 5561 5560 5560 5559 5557 5555 5552 5549 5547 5543 5539 5535 5531 5528 5523 5519 5514 5509 5504 5499 5493 5488 5483 5479 5474 5468 5463 5457 5451 5447
5534 5538 5541 5542 5544 5546 5548 5549 5550 5551 5551 5551 5550 5550 5549 5549 5548 5545 5543 5541 5539 5535 5533 5529 5526 5522 5518 5514 5510 5506 5501 5497 5493 5488 5483 5479 5475 5471 5468 5463 5459 5455 5451
5524 5527 5529 5530 5533 5536 5537 5538 5538 5539 5539 5539 5539 5539 5538 5538 5536 5535 5533 5530 5527 5525 5522 5519 5515 5512 5509 5504 5501 5497 5492 5489 5485 5482 5478 5474 5470 5466 5464 5461 5458 5455 5452
5512 5515 5518 5520 5521 5523 5525 5526 5528 5528 5528 5527 5527 5527 5527 5526 5525 5523 5521 5518 5515 5513 5509 5506 5502 5500 5497 5493 5490 5487 5483 5480 5476 5474 5471 5467 5463 5460 5458 5456 5453 5451 5449
5500 5503 5506 5508 5510 5512 5513 5515 5516 5517 5516 5516 5515 5516 5515 5514 5512 5510 5508 5506 5504 5500 5497 5494 5490 5487 5484 5482 5479 5476 5473 5470 5467 5464 5462 5459 5456 5452 5450 5448 5446 5445 5443
5489 5492 5495 5498 5499 5501 5503 5503 5504 5504 5504 5504 5503 5503 5501 5501 5500 5497 5495 5494 5491 5488 5485 5481 5479 5476 5473 5470 5467 5465 5462 5459 5456 5452 5450 5448 5445 5443 5440 5439 5438 5437 5436
5479 5482 5485 5487 5488 5489 5490 5491 5492 5493 5493 5492 5491 5490 5489 5489 5486 5484 5483 5481 5478 5476 5472 5468 5465 5463 5460 5457 5455 5452 5449 5447 5444 5441 5439 5437 5435 5433 5431 5428 5427 5426 5426
5470 5472 5475 5476 5477 5478 5478 5479 5480 5480 5481 5480 5478 5478 5477 5475 5474 5472 5470 5468 5465 5462 5458 5455 5452 5449 5446 5443 5440 5438 5435 5433 5430 5428 5426 5425 5423 5421 5419 5418 5416 5415 5414
5460 5462 5464 5465 5465 5467 5468 5468 5468 5467 5468 5467 5466 5463 5462 5461 5460 5458 5455 5453 5450 5447 5444 5440 5437 5434 5431 5428 5425 5422 5420 5418 5416 5414 5412 5410 5408 5406 5405 5403 5402 5402 5402
5450 5451 5452 5453 5454 5455 5455 5455 5454 5454 5454 5454 5452 5449 5447 5446 5444 5442 5439 5436 5434 5431 5429 5425 5421 5418 5415 5412 5410 5408 5405 5403 5400 5398 5396 5395 5394 5392 5390 5389 5389 5389 5388
5439 5440 5441 5442 5442 5442 5442 5442 5442 5442 5441 5439 5436 5433 5431 5430 5427 5425 5422 5420 5417 5414 5410 5407 5404 5401 5398 5396 5393 5391 5389 5387 5385 5383 5382 5381 5379 5378 5376 5375 5375 5374 5373
5428 5428 5428 5429 5429 5429 5429 5428 5427 5426 5424 5422 5420 5417 5415 5413 5410 5408 5405 5402 5399 5395 5391 5389 5386 5383 5381 5378 5376 5374 5372 5371 5369 5368 5366 5365 5363 5362 5361 5360 5359 5359 5358
5418 5417 5417 5417 5416 5415 5414 5413 5411 5410 5408 5405 5403 5400 5398 5395 5392 5389 5386 5383 5379 5376 5373 5370 5367 5365 5362 5360 5358 5356 5355 5353 5352 5351 5349 5348 5347 5345 5344 5343 5342 5342 5341
5406 5405 5404 5403 5401 5400 5398 5397 5395 5393 5390 5387 5385 5382 5379 5376 5373 5369 5366 5363 5360 5357 5354 5351 5349 5346 5344 5342 5340 5338 5337 5335 5333 5331 5330 5329 5328 5327 5325 5324 5324 5323 5323
5392 5391 5389 5388 5386 5384 5381 5379 5377 5374 5371 5368 5365 5362 5359 5356 5353 5350 5347 5344 5341 5338 5335 5332 5329 5326 5324 5322 5319 5317 5316 5314 5312 5310 5308 5307 5305 5305 5304 5303 5302 5301 5301